Time,TemperatureF,DewpointF,PressureIn,WindDirection,WindDirectionDegrees,WindSpeedMPH,WindSpeedGustMPH,Humidity,HourlyPrecipIn,Conditions,Clouds,dailyrainin,SoftwareType,DateUTC
2013-12-06 00:22:00,49.0,48.0,29.88,NW,324,0.0,6.0,96,0.00,,,0.00,,2013-12-06 05:22:00,
2013-12-06 00:53:00,47.0,46.0,29.89,NW,324,0.0,1.0,95,0.00,,,0.00,,2013-12-06 05:53:00,
2013-12-06 01:22:00,45.0,44.0,29.89,NW,324,0.0,4.0,97,0.00,,,0.00,,2013-12-06 06:22:00,
2013-12-06 01:52:00,44.0,43.0,29.89,NW,324,0.0,1.0,97,0.00,,,0.00,,2013-12-06 06:52:00,
2013-12-06 02:22:00,44.0,43.0,29.91,NW,324,1.0,2.0,97,0.00,,,0.00,,2013-12-06 07:22:00,
2013-12-06 02:42:00,44.0,43.0,29.92,NW,324,0.0,2.0,98,0.00,,,0.00,,2013-12-06 07:42:00,
2013-12-06 02:52:00,43.0,42.0,29.92,NW,324,0.0,2.0,98,0.00,,,0.00,,2013-12-06 07:52:00,
2013-12-06 03:22:00,42.0,41.0,29.92,NNW,335,1.0,8.0,98,0.00,,,0.00,,2013-12-06 08:22:00,
2013-12-06 03:52:00,41.0,40.0,29.93,North,351,2.0,7.0,97,0.00,,,0.00,,2013-12-06 08:52:00,
2013-12-06 04:22:00,39.0,38.0,29.96,NNW,336,1.0,7.0,95,0.00,,,0.00,,2013-12-06 09:22:00,
2013-12-06 04:43:00,39.0,38.0,29.95,NNW,339,0.0,2.0,95,0.00,,,0.00,,2013-12-06 09:43:00,
2013-12-06 04:54:00,37.0,36.0,29.96,NNW,343,1.0,6.0,95,0.00,,,0.00,,2013-12-06 09:54:00,
2013-12-06 05:23:00,36.0,35.0,29.98,NNW,343,0.0,2.0,96,0.00,,,0.00,,2013-12-06 10:23:00,
2013-12-06 05:52:00,34.0,33.0,29.99,North,360,0.0,0.0,96,0.00,,,0.00,,2013-12-06 10:52:00,
2013-12-06 06:22:00,33.0,32.0,29.97,North,360,0.0,2.0,96,0.00,,,0.00,,2013-12-06 11:22:00,
2013-12-06 06:42:00,33.0,32.0,29.98,ESE,112,0.0,3.0,97,0.00,,,0.00,,2013-12-06 11:42:00,
2013-12-06 06:54:00,32.0,31.0,29.97,ESE,112,0.0,0.0,97,0.00,,,0.00,,2013-12-06 11:54:00,
2013-12-06 07:22:00,32.0,31.0,29.95,SSE,157,1.0,4.0,97,0.00,,,0.00,,2013-12-06 12:22:00,
2013-12-06 07:42:00,32.0,31.0,30.00,WSW,243,0.0,2.0,97,0.00,,,0.00,,2013-12-06 12:42:00,
2013-12-06 07:52:00,32.0,31.0,30.01,WSW,243,0.0,2.0,97,0.00,,,0.00,,2013-12-06 12:52:00,
2013-12-06 08:11:00,32.0,31.0,30.00,WSW,243,0.0,0.0,97,0.00,,,0.00,,2013-12-06 13:11:00,
2013-12-06 08:22:00,32.0,31.0,30.01,WSW,243,0.0,0.0,97,0.00,,,0.00,,2013-12-06 13:22:00,
2013-12-06 08:42:00,32.0,31.0,30.02,WSW,243,0.0,0.0,97,0.00,,,0.00,,2013-12-06 13:42:00,
2013-12-06 08:52:00,33.0,32.0,30.00,WSW,243,0.0,2.0,98,0.00,,,0.00,,2013-12-06 13:52:00,
2013-12-06 09:11:00,33.0,32.0,30.03,WSW,243,0.0,0.0,98,0.00,,,0.00,,2013-12-06 14:11:00,
2013-12-06 09:22:00,33.0,32.0,30.02,WSW,243,0.0,2.0,98,0.00,,,0.00,,2013-12-06 14:22:00,
2013-12-06 09:42:00,33.0,32.0,30.03,WSW,243,1.0,2.0,98,0.00,,,0.00,,2013-12-06 14:42:00,
2013-12-06 09:53:00,33.0,32.0,30.02,WSW,243,0.0,0.0,98,0.00,,,0.00,,2013-12-06 14:53:00,
2013-12-06 10:22:00,33.0,32.0,30.03,WSW,243,0.0,1.0,98,0.00,,,0.00,,2013-12-06 15:22:00,
2013-12-06 10:44:00,33.0,32.0,30.03,WSW,243,0.0,2.0,98,0.00,,,0.00,,2013-12-06 15:44:00,
2013-12-06 10:54:00,34.0,34.0,30.02,WSW,243,0.0,2.0,98,0.00,,,0.00,,2013-12-06 15:54:00,
2013-12-06 11:24:00,34.0,34.0,30.01,WSW,243,0.0,0.0,98,0.00,,,0.00,,2013-12-06 16:24:00,
2013-12-06 11:43:00,34.0,34.0,30.02,WSW,243,0.0,1.0,98,0.00,,,0.00,,2013-12-06 16:43:00,
2013-12-06 11:53:00,34.0,34.0,30.02,WSW,243,0.0,0.0,98,0.00,,,0.00,,2013-12-06 16:53:00,
2013-12-06 12:12:00,35.0,34.0,30.03,North,360,0.0,2.0,98,0.00,,,0.00,,2013-12-06 17:12:00,
2013-12-06 12:22:00,35.0,34.0,30.04,NNE,14,0.0,3.0,98,0.00,,,0.00,,2013-12-06 17:22:00,
2013-12-06 12:52:00,36.0,35.0,30.03,NW,314,1.0,6.0,98,0.00,,,0.00,,2013-12-06 17:52:00,
2013-12-06 13:12:00,36.0,35.0,30.03,NNW,327,0.0,9.0,96,0.00,,,0.00,,2013-12-06 18:12:00,
2013-12-06 13:22:00,36.0,34.0,30.02,NNW,337,2.0,7.0,91,0.00,,,0.00,,2013-12-06 18:22:00,
2013-12-06 13:42:00,36.0,34.0,30.03,NNW,337,0.0,6.0,91,0.00,,,0.00,,2013-12-06 18:42:00,
2013-12-06 13:52:00,36.0,33.0,30.03,NNW,337,0.0,6.0,87,0.00,,,0.00,,2013-12-06 18:52:00,
2013-12-06 14:22:00,35.0,31.0,30.03,North,358,0.0,10.0,85,0.00,,,0.00,,2013-12-06 19:22:00,
2013-12-06 14:42:00,35.0,32.0,30.03,NNE,32,0.0,6.0,88,0.00,,,0.00,,2013-12-06 19:42:00,
2013-12-06 14:52:00,35.0,31.0,30.04,NNW,328,4.0,8.0,85,0.00,,,0.00,,2013-12-06 19:52:00,
2013-12-06 15:22:00,35.0,30.0,30.04,NW,326,6.0,9.0,82,0.00,,,0.00,,2013-12-06 20:22:00,
2013-12-06 15:52:00,34.0,29.0,30.04,NNW,330,0.0,5.0,83,0.00,,,0.00,,2013-12-06 20:52:00,
2013-12-06 16:22:00,33.0,31.0,30.05,NNW,330,0.0,1.0,91,0.00,,,0.00,,2013-12-06 21:22:00,
2013-12-06 16:43:00,33.0,31.0,30.05,NNW,330,0.0,1.0,92,0.00,,,0.00,,2013-12-06 21:43:00,
2013-12-06 16:54:00,32.0,30.0,30.06,NNW,330,0.0,1.0,93,0.00,,,0.00,,2013-12-06 21:54:00,
2013-12-06 17:23:00,32.0,30.0,30.05,NNW,330,0.0,0.0,94,0.00,,,0.00,,2013-12-06 22:23:00,
2013-12-06 17:42:00,32.0,31.0,30.06,NNW,330,0.0,1.0,95,0.00,,,0.00,,2013-12-06 22:42:00,
2013-12-06 17:53:00,31.0,29.0,30.07,NNW,330,3.0,6.0,94,0.00,,,0.00,,2013-12-06 22:53:00,
2013-12-06 18:22:00,32.0,29.0,30.07,NNW,330,0.0,2.0,89,0.00,,,0.00,,2013-12-06 23:22:00,
2013-12-06 18:42:00,32.0,30.0,30.08,NNW,330,0.0,1.0,93,0.00,,,0.00,,2013-12-06 23:42:00,
2013-12-06 18:52:00,31.0,29.0,30.07,NNW,330,0.0,2.0,93,0.00,,,0.00,,2013-12-06 23:52:00,
2013-12-06 19:22:00,32.0,30.0,30.09,NNW,330,0.0,2.0,93,0.00,,,0.00,,2013-12-07 00:22:00,
2013-12-06 19:52:00,31.0,29.0,30.09,NNW,330,0.0,1.0,94,0.00,,,0.00,,2013-12-07 00:52:00,
2013-12-06 20:11:00,31.0,29.0,30.10,NNW,330,0.0,2.0,93,0.00,,,0.00,,2013-12-07 01:11:00,
2013-12-06 20:22:00,31.0,29.0,30.09,NNW,330,0.0,1.0,93,0.00,,,0.00,,2013-12-07 01:22:00,
2013-12-06 20:42:00,31.0,29.0,30.10,NNW,330,0.0,2.0,93,0.00,,,0.00,,2013-12-07 01:42:00,
2013-12-06 20:52:00,31.0,29.0,30.11,NNW,330,0.0,2.0,93,0.00,,,0.00,,2013-12-07 01:52:00,
2013-12-06 21:22:00,31.0,29.0,30.11,NNW,330,0.0,0.0,93,0.00,,,0.00,,2013-12-07 02:22:00,
2013-12-06 21:42:00,31.0,29.0,30.11,NNW,330,0.0,0.0,92,0.00,,,0.00,,2013-12-07 02:42:00,
2013-12-06 21:53:00,31.0,29.0,30.13,NNW,330,0.0,0.0,93,0.00,,,0.00,,2013-12-07 02:53:00,
2013-12-06 22:22:00,31.0,29.0,30.12,NNW,330,0.0,0.0,93,0.00,,,0.00,,2013-12-07 03:22:00,
2013-12-06 22:43:00,31.0,29.0,30.12,NNW,330,0.0,0.0,93,0.00,,,0.00,,2013-12-07 03:43:00,
2013-12-06 22:53:00,31.0,29.0,30.13,NNW,330,0.0,0.0,93,0.00,,,0.00,,2013-12-07 03:53:00,
2013-12-06 23:23:00,31.0,29.0,30.12,NNW,330,0.0,2.0,92,0.00,,,0.00,,2013-12-07 04:23:00,
2013-12-06 23:43:00,31.0,29.0,30.11,NNW,330,0.0,0.0,92,0.00,,,0.00,,2013-12-07 04:43:00,
2013-12-06 23:53:00,31.0,28.0,30.12,NNW,330,0.0,4.0,87,0.00,,,0.00,,2013-12-07 04:53:00,